Terug naar catalogus

CZ-6A DEB

ActiefPO
NORAD 61834·DEBRIS·🇨🇳 China

Gelanceerd Aug 6, 2024 vanaf Taiyuan Satellite Launch Center

Loading…

Volgende Passages (komende 24 uur)

TLE

VersSource: Space-Track

Epoch: Sep 14, 2026, 11:24 UTC

1 61834U 24140ADA 26257.47511732  .00001415  00000-0  64545-3 0  9993
2 61834  88.9983 265.0419 0055526 268.4599  91.0230 14.20319320103107

Volg CZ-6A DEB in realtime met AllMySat

Download on the App Store